User: anonymous   Login
Location: Unspecified
(0.0000°N, 0.0000°E)
Time: 15:38:39
(UTC+00:00)
Language:

LAPAN A3 - Orbit

View from above orbital plane
View from above orbital plane
View from above satellite
View from above satellite

Ground track
Ground track

The orbit data is extracted from the following two-line orbital elements,

1 41603U 16040E   21331.11842214  .00000370  00000-0  20077-4 0  9998
2 41603  97.2353  11.6923 0014240 145.4394 299.4499 15.20177171301291
Epoch (UTC): 27 November 2021 02:50:31
Eccentricity: 0.0014240
inclination: 97.2353°
perigee height: 495 km
apogee height: 515 km
right ascension of ascending node: 11.6923°
argument of perigee: 145.4394°
revolutions per day: 15.20177171
mean anomaly at epoch: 299.4499°
orbit number at epoch: 30129

The dashed part of the orbit path shows where the satellite is in the earth's shadow,  

DLR